This is the latest recevied weather packets stored in our database for station/object W4MLN-3. If no packets are shown the sender has not sent any weather packets the latest 10 day(s).
| Time | Temp. | Humidity | Pressure | Rain* | Wind** | Luminosity | Snow |
|---|---|---|---|---|---|---|---|
| 1777906203 | 12.22° C | 58% | 1017.9 hPa | 0 mm | - | - | - |
| 1777905903 | 12.22° C | 56% | 1017.9 hPa | 0 mm | - | - | - |
| 1777905625 | 12.78° C | 55% | 1017.9 hPa | 0 mm | - | - | - |
| 1777905303 | 12.78° C | 55% | 1017.9 hPa | 0 mm | - | - | - |
| 1777905003 | 12.78° C | 53% | 1017.9 hPa | 0 mm | - | - | - |
| 1777904703 | 13.33° C | 52% | 1017.7 hPa | 0 mm | - | - | - |
| 1777904403 | 13.33° C | 52% | 1017.5 hPa | 0 mm | - | - | - |
| 1777904125 | 13.33° C | 51% | 1017.5 hPa | 0 mm | - | - | - |
| 1777903803 | 13.89° C | 51% | 1017.3 hPa | 0 mm | - | - | - |
| 1777903503 | 13.89° C | 51% | 1017.2 hPa | 0 mm | - | - | - |
| 1777903203 | 13.89° C | 51% | 1017.1 hPa | 0 mm | - | - | - |
| 1777902924 | 13.89° C | 51% | 1017.1 hPa | 0 mm | - | - | - |
| 1777902604 | 13.89° C | 50% | 1017 hPa | 0 mm | - | - | - |
| 1777902303 | 13.89° C | 49% | 1017 hPa | 0 mm | - | - | - |
| 1777902003 | 13.89° C | 50% | 1016.8 hPa | 0 mm | - | - | - |
| 1777901703 | 13.89° C | 51% | 1016.9 hPa | 0 mm | - | - | - |
| 1777901404 | 13.33° C | 51% | 1016.7 hPa | 0 mm | - | - | - |
| 1777901103 | 13.33° C | 52% | 1016.6 hPa | 0 mm | - | - | - |
| 1777900803 | 12.78° C | 52% | 1016.4 hPa | 0 mm | - | - | - |
| 1777900503 | 12.78° C | 53% | 1016.4 hPa | 0 mm | - | - | - |
| 1777900203 | 12.78° C | 53% | 1016.5 hPa | 0 mm | - | - | - |
| 1777899903 | 12.78° C | 52% | 1016.4 hPa | 0 mm | - | - | - |
| 1777899624 | 12.22° C | 52% | 1016.4 hPa | 0 mm | - | - | - |
| 1777899303 | 12.22° C | 54% | 1016.5 hPa | 0 mm | - | - | - |
| 1777899004 | 12.22° C | 54% | 1016.4 hPa | 0 mm | - | - | - |
* Rain latest hour (hover to see other rain measurements)
** Current wind speed in m/s (hover to see current wind gust speed)